Location: Chanteloup
(48.8560°N, 2.7390°E)
Time: 23:01:10
(UTC+00:00)

Cosmos 2322 Rocket - Pass Details

Date: 29 May 2022
Orbit: 833 x 851 km, 71.0° (Epoch: 06 July)

Event Time Altitude Azimuth Distance (km) Brightness Sun altitude
Rises 23:13:23 0° 245° (WSW) 3,374 5.2 -19.0°
Reaches altitude 10° 23:16:11 10° 257° (WSW) 2,442 4.5 -19.1°
Maximum altitude 23:20:53 27° 315° (NW) 1,557 4.1 -19.2°
Drops below altitude 10° 23:25:38 10° 12° (NNE) 2,455 5.7 -19.3°
Sets 23:28:28 0° 25° (NNE) 3,394 6.4 -19.3°
